Location: Rumah Geringgi
(3.1667°N, 113.1667°E)
Time: 19:27:24
(UTC+00:00)

Cosmos 1371 Rocket - Pass Details

Date: 03 August 2024
Orbit: 752 x 786 km, 74.0° (Epoch: 11 September)

Event Time Altitude Azimuth Distance (km) Brightness Sun altitude
Rises 12:15:08 0° 187° (S) 3,271 7.1 -23.1°
Enters shadow 12:16:19 - 186° (S) 2,810 6.8 -23.4°
Exits shadow 12:24:03 50° 44° (NE) 988 4.3 -25.2°
Drops below altitude 10° 12:28:06 10° 20° (NNE) 2,332 6.5 -26.1°
Sets 12:30:29 0° 18° (NNE) 3,255 7.3 -26.7°
